TimeCST,TemperatureF,Dew PointF,Humidity,Sea Level PressureIn,VisibilityMPH,Wind Direction,Wind SpeedMPH,Gust SpeedMPH,PrecipitationIn,Events,Conditions,WindDirDegrees,DateUTC
12:53 AM,41.0,30.9,67,30.18,10.0,South,11.5,-,N/A,,Clear,180,2012-11-17 06:53:00
1:53 AM,39.0,30.9,73,30.17,10.0,South,9.2,-,N/A,,Clear,170,2012-11-17 07:53:00
2:53 AM,36.0,30.9,82,30.16,10.0,South,11.5,-,N/A,,Clear,190,2012-11-17 08:53:00
3:53 AM,39.0,33.1,79,30.15,10.0,South,10.4,-,N/A,,Clear,190,2012-11-17 09:53:00
4:53 AM,37.9,34.0,86,30.14,10.0,SSW,12.7,-,N/A,,Clear,200,2012-11-17 10:53:00
5:53 AM,36.0,33.1,89,30.17,9.0,SSW,13.8,-,N/A,,Clear,200,2012-11-17 11:53:00
6:53 AM,37.9,35.1,89,30.18,9.0,South,11.5,-,N/A,,Clear,190,2012-11-17 12:53:00
7:53 AM,39.0,36.0,89,30.19,7.0,South,12.7,-,N/A,,Clear,190,2012-11-17 13:53:00
8:53 AM,45.0,39.0,80,30.19,9.0,SSW,19.6,-,N/A,,Clear,200,2012-11-17 14:53:00
9:53 AM,50.0,41.0,71,30.19,10.0,SSW,18.4,-,N/A,,Clear,210,2012-11-17 15:53:00
10:53 AM,54.0,41.0,62,30.18,10.0,SSW,18.4,-,N/A,,Clear,200,2012-11-17 16:53:00
11:53 AM,57.9,39.9,51,30.14,10.0,SSW,18.4,-,N/A,,Clear,210,2012-11-17 17:53:00
12:53 PM,61.0,39.0,44,30.10,10.0,SSW,19.6,-,N/A,,Clear,200,2012-11-17 18:53:00
1:53 PM,63.0,37.9,40,30.07,10.0,SSW,19.6,-,N/A,,Clear,200,2012-11-17 19:53:00
2:53 PM,63.0,37.9,40,30.06,10.0,SSW,20.7,-,N/A,,Clear,200,2012-11-17 20:53:00
3:53 PM,62.1,37.9,41,30.06,10.0,SSW,19.6,25.3,N/A,,Clear,200,2012-11-17 21:53:00
4:53 PM,61.0,37.0,41,30.06,10.0,South,16.1,-,N/A,,Clear,190,2012-11-17 22:53:00
5:53 PM,55.9,37.0,49,30.07,10.0,South,11.5,-,N/A,,Clear,190,2012-11-17 23:53:00
6:53 PM,53.1,36.0,52,30.07,10.0,South,12.7,-,N/A,,Clear,190,2012-11-18 00:53:00
7:53 PM,53.1,36.0,52,30.08,10.0,South,11.5,-,N/A,,Clear,180,2012-11-18 01:53:00
8:53 PM,52.0,37.0,57,30.07,10.0,South,15.0,-,N/A,,Clear,180,2012-11-18 02:53:00
9:53 PM,52.0,37.9,59,30.06,10.0,South,16.1,-,N/A,,Clear,180,2012-11-18 03:53:00
10:53 PM,50.0,37.9,63,30.05,10.0,South,13.8,-,N/A,,Clear,180,2012-11-18 04:53:00
11:53 PM,50.0,39.0,66,30.03,10.0,South,12.7,-,N/A,,Clear,180,2012-11-18 05:53:00